COSMOS 2476 (744)

Last updated on Thu Nov 21 2024 00:03:12 GMT+0000 (Coordinated Universal Time)

1 37867U 11064A 24325.49081844 .00000019 00000+0 00000+0 0 9995 2 37867 64.9597 92.2883 0022866 231.6247 93.2552 2.13101530101536
UTC large
Height (km)
Speed (km/s)
/
Latitude / Longitude
Inclination (degrees)
Orbital Period (minutes)
Azimuth
Elevation
Range (km)
Doppler Factor

Next 0 passes for location: London (51.5072 / 0.1276)

Sorry there are no passes over London.